Change the Weather History Date:

Sunday, September 9, 2012

  Actual Average (KMTJ) Record (KMTJ)
Temperature  
Mean Temperature 70 °F 65 °F  
Max Temperature 90 °F 80 °F 90 °F (2007)
Min Temperature 50 °F 50 °F 33 °F (2001)
Degree Days  
Heating Degree Days 0 2  
Month to date heating degree days 12  
Since 1 July heating degree days 17  
Cooling Degree Days 5 2  
Month to date cooling degree days 22  
Year to date cooling degree days 627  
Growing Degree Days 20 (Base 50)    
Moisture  
Dew Point 31 °F    
Average Humidity 27    
Maximum Humidity 52    
Minimum Humidity 9    
Precipitation  
Precipitation 0.00 in 0.05 in 0.77 in (2003)
Month to date precipitation 0.33  
Year to date precipitation 7.66  
Sea Level Pressure  
Sea Level Pressure 30.22 in    
Wind  
Wind Speed 4 mph ()    
Max Wind Speed 9 mph    
Max Gust Speed -    
Visibility 10.0 miles    
Events      
T = Trace of Precipitation, MM = Missing Value Source: Averaged Metar Reports

Daily Weather History Graph

Daily Weather History Graph

Search for Another Location

Airport or City:

Trip Planner

Search our weather history database for the weather conditions in past years. The results will help you decide how hot, cold, wet, or windy it might be!

Date:

Astronomy

Sep. 09, 2012 Rise Set
Actual Time 6:48 AM MDT 7:29 PM MDT
Civil Twilight 6:22 AM MDT 7:55 PM MDT
Nautical Twilight 5:50 AM MDT 8:27 PM MDT
Astronomical Twilight 5:17 AM MDT 9:00 PM MDT
Moon 12:23 AM MDT (9/9) 3:14 PM MDT (9/9)
Length of Visible Light 13h 33m
Length of Day
12h 40m
Last Quarter, 39% of the Moon is Illuminated
Sep 9
Last Quarter
Sep 15
New
Sep 22
First Quarter
Sep 29
Full
Oct 8
Last Quarter

Hourly Weather History & Observations

Time (MDT) Temp. Dew Point Humidity Pressure Visibility Wind Dir Wind Speed Gust Speed Precip Events Conditions
12:15 AM 61.9 °F 29.8 °F 30% 30.26 in 10.0 mi ENE 5.8 mph - N/A   Unknown
12:35 AM 61.0 °F 29.8 °F 31% 30.27 in 10.0 mi NE 6.9 mph - N/A   Unknown
12:55 AM 59.4 °F 32.4 °F 36% 30.27 in 10.0 mi NE 4.6 mph - N/A   Unknown
1:15 AM 60.4 °F 30.0 °F 32% 30.27 in 10.0 mi ESE 3.5 mph - N/A   Unknown
1:35 AM 58.3 °F 28.9 °F 33% 30.28 in 10.0 mi ESE 4.6 mph - N/A   Unknown
1:55 AM 55.8 °F 30.6 °F 38% 30.28 in 10.0 mi NNE 5.8 mph - N/A   Unknown
2:15 AM 55.8 °F 35.8 °F 47% 30.28 in 10.0 mi NNE 4.6 mph - N/A   Unknown
2:35 AM 56.7 °F 32.0 °F 39% 30.28 in 10.0 mi NNE 4.6 mph - N/A   Unknown
2:55 AM 55.8 °F 32.7 °F 42% 30.28 in 10.0 mi SSE 3.5 mph - N/A   Unknown
3:15 AM 55.4 °F 30.2 °F 38% 30.28 in 10.0 mi Calm Calm - N/A   Unknown
3:35 AM 53.6 °F 32.7 °F 45% 30.28 in 10.0 mi Calm Calm - N/A   Unknown
3:55 AM 53.4 °F 32.2 °F 44% 30.29 in 10.0 mi ENE 4.6 mph - N/A   Unknown
4:15 AM 53.1 °F 32.4 °F 45% 30.30 in 10.0 mi NNE 9.2 mph - N/A   Unknown
4:35 AM 55.4 °F 29.5 °F 37% 30.30 in 10.0 mi ENE 6.9 mph - N/A   Unknown
4:55 AM 54.5 °F 30.0 °F 39% 30.30 in 10.0 mi NE 6.9 mph - N/A   Unknown
5:15 AM 53.8 °F 28.9 °F 39% 30.30 in 10.0 mi ENE 5.8 mph - N/A   Unknown
5:35 AM 52.5 °F 31.3 °F 44% 30.30 in 10.0 mi Calm Calm - N/A   Unknown
5:55 AM 52.0 °F 27.7 °F 39% 30.30 in 10.0 mi SE 3.5 mph - N/A   Unknown
6:15 AM 50.7 °F 30.9 °F 47% 30.31 in 10.0 mi Calm Calm - N/A   Unknown
6:35 AM 51.4 °F 31.1 °F 46% 30.31 in 10.0 mi Calm Calm - N/A   Unknown
6:55 AM 50.7 °F 32.0 °F 49% 30.31 in 10.0 mi Calm Calm - N/A   Unknown
7:15 AM 50.0 °F 33.1 °F 52% 30.32 in 10.0 mi North 3.5 mph - N/A   Unknown
7:35 AM 52.9 °F 33.1 °F 47% 30.32 in 10.0 mi NNE 4.6 mph - N/A   Unknown
8:15 AM 60.1 °F 34.0 °F 38% 30.33 in 10.0 mi ENE 6.9 mph - N/A   Unknown
8:35 AM 60.1 °F 34.5 °F 38% 30.33 in 10.0 mi ENE 5.8 mph - N/A   Unknown
8:55 AM 62.8 °F 34.7 °F 35% 30.33 in 10.0 mi East 5.8 mph - N/A   Unknown
9:15 AM 64.4 °F 35.1 °F 34% 30.33 in 10.0 mi ENE 4.6 mph - N/A   Unknown
9:35 AM 66.7 °F 35.2 °F 31% 30.33 in 10.0 mi NNE 3.5 mph - N/A   Unknown
9:55 AM 68.2 °F 35.6 °F 30% 30.32 in 10.0 mi Calm Calm - N/A   Unknown
10:15 AM 70.2 °F 35.6 °F 28% 30.32 in 10.0 mi Calm Calm - N/A   Unknown
10:35 AM 72.3 °F 35.6 °F 26% 30.31 in 10.0 mi Calm Calm - N/A   Unknown
10:55 AM 73.9 °F 35.1 °F 24% 30.30 in 10.0 mi Calm Calm - N/A   Unknown
11:15 AM 75.6 °F 34.9 °F 23% 30.29 in 10.0 mi Calm Calm - N/A   Unknown
11:35 AM 77.9 °F 34.9 °F 21% 30.28 in 10.0 mi Calm Calm - N/A   Unknown
11:55 AM 79.7 °F 35.1 °F 20% 30.27 in 10.0 mi SSE 3.5 mph - N/A   Unknown
12:15 PM 80.6 °F 35.6 °F 20% 30.26 in 10.0 mi SSE 4.6 mph - N/A   Unknown
12:35 PM 81.9 °F 34.9 °F 18% 30.25 in 10.0 mi Calm Calm - N/A   Unknown
12:55 PM 84.0 °F 30.9 °F 15% 30.24 in 10.0 mi SE 3.5 mph - N/A   Unknown
1:15 PM 84.9 °F 30.0 °F 14% 30.23 in 10.0 mi Calm Calm - N/A   Unknown
1:35 PM 86.0 °F 28.4 °F 12% 30.22 in 10.0 mi SSE 5.8 mph - N/A   Unknown
1:55 PM 86.9 °F 24.1 °F 10% 30.21 in 10.0 mi ESE 5.8 mph - N/A   Unknown
2:15 PM 87.8 °F 22.8 °F 9% 30.19 in 10.0 mi East 3.5 mph - N/A   Unknown
2:35 PM 88.7 °F 26.4 °F 11% 30.18 in 10.0 mi SSE 9.2 mph - N/A   Unknown
2:55 PM 87.3 °F 26.8 °F 11% 30.17 in 10.0 mi SW 4.6 mph - N/A   Unknown
3:15 PM 88.7 °F 28.4 °F 11% 30.16 in 10.0 mi South 5.8 mph - N/A   Unknown
3:35 PM 88.9 °F 28.4 °F 11% 30.15 in 10.0 mi SSW 9.2 mph - N/A   Unknown
3:55 PM 89.1 °F 28.6 °F 11% 30.15 in 10.0 mi West 4.6 mph - N/A   Unknown
4:15 PM 89.8 °F 26.8 °F 10% 30.13 in 10.0 mi South 8.1 mph - N/A   Unknown
4:55 PM 90.1 °F 27.9 °F 11% 30.12 in 10.0 mi South 6.9 mph - N/A   Unknown
5:15 PM 89.6 °F 28.0 °F 11% 30.11 in 10.0 mi South 5.8 mph - N/A   Unknown
5:35 PM 88.7 °F 27.7 °F 11% 30.10 in 10.0 mi South 8.1 mph - N/A   Unknown
5:55 PM 88.7 °F 28.4 °F 11% 30.10 in 10.0 mi South 6.9 mph - N/A   Unknown
6:15 PM 88.0 °F 28.0 °F 12% 30.09 in 10.0 mi Calm Calm - N/A   Unknown
6:35 PM 87.8 °F 28.2 °F 12% 30.09 in 10.0 mi West 6.9 mph - N/A   Unknown
6:55 PM 87.1 °F 28.9 °F 12% 30.09 in 10.0 mi West 5.8 mph - N/A   Unknown
7:15 PM 85.6 °F 28.9 °F 13% 30.09 in 10.0 mi West 6.9 mph - N/A   Unknown
7:35 PM 84.0 °F 29.3 °F 14% 30.09 in 10.0 mi West 6.9 mph - N/A   Unknown
7:55 PM 82.6 °F 31.5 °F 16% 30.10 in 10.0 mi West 5.8 mph - N/A   Unknown
8:15 PM 80.8 °F 32.0 °F 17% 30.11 in 10.0 mi West 5.8 mph - N/A   Unknown
8:35 PM 79.3 °F 32.0 °F 18% 30.12 in 10.0 mi West 3.5 mph - N/A   Unknown
8:55 PM 76.1 °F 32.4 °F 20% 30.12 in 10.0 mi East 6.9 mph - N/A   Unknown
9:15 PM 72.7 °F 32.0 °F 22% 30.13 in 10.0 mi ESE 5.8 mph - N/A   Unknown
9:35 PM 70.9 °F 33.8 °F 26% 30.13 in 10.0 mi ESE 6.9 mph - N/A   Unknown
9:55 PM 71.1 °F 33.4 °F 25% 30.14 in 10.0 mi East 9.2 mph - N/A   Unknown
10:15 PM 71.8 °F 32.9 °F 24% 30.15 in 10.0 mi Calm Calm - N/A   Unknown
10:35 PM 68.0 °F 35.2 °F 30% 30.16 in 10.0 mi NNE 4.6 mph - N/A   Unknown
10:55 PM 66.9 °F 36.1 °F 32% 30.16 in 10.0 mi NNE 5.8 mph - N/A   Unknown
11:15 PM 66.4 °F 35.8 °F 32% 30.17 in 10.0 mi North 6.9 mph - N/A   Unknown
11:35 PM 66.4 °F 36.0 °F 33% 30.17 in 10.0 mi North 9.2 mph - N/A   Unknown
11:55 PM 66.9 °F 35.6 °F 31% 30.17 in 10.0 mi North 8.1 mph - N/A   Unknown